Date String (YYYY-MM-DD hh:mm:ss) UTC,Instrument flags,absolute air pressure of the measurement (hPa),sample flow rate (lpm),inlet stack bypass flow (lpm),air temperature of the measurement (°C),ambient temperature measured by the external sensor (°C),aerosol sample conditioner tube jacket temperature (°C),OPC LED temperature (°C),internal box temperature (°C),relative humidity of the measurement (%),span deviation,mass concentration of particles derived from Lorenz-Mie calculation of OPC scattering (μg/m³),mass concentration of particles derived from Lorenz-Mie calculation of OPC scattering (μg/m³),mass concentration of particles derived from Lorenz-Mie calculation of OPC scattering (μg/m³)
DateTimeUTC,F1_M11,P_M11,Q1_M11,Q2_M11,T1_M11,T2_M11,T3_M11,T4_M11,T5_M11,U1_M11,ZSPAN_M11,X0_M11,X2_M11,X1_M11
2023-07-17 07:00:00,SystemResetWarning,0833.6,5.01,000.00,029.3,027.9,000.0,037.7,030.9,22.1,0000.1,0014.92,0007.42,0006.70
2023-07-17 07:01:00,SystemResetWarning,0833.6,5.00,000.00,029.3,028.1,000.0,037.7,031.0,22.0,0000.5,0015.09,0007.42,0006.70
2023-07-17 07:02:00,SystemResetWarning,0833.6,4.99,000.00,029.3,028.2,000.0,037.7,031.0,21.8,0000.5,0014.95,0007.42,0006.72
2023-07-17 07:03:00,SystemResetWarning,0833.6,5.00,000.00,029.4,028.2,000.0,037.7,031.1,21.8,0000.6,0015.01,0007.36,0006.66
2023-07-17 07:04:00,SystemResetWarning,0833.6,5.00,000.00,029.4,028.3,000.0,037.8,031.1,21.8,0000.1,0014.90,0007.30,0006.61
2023-07-17 07:05:00,SystemResetWarning,0833.6,4.98,000.00,029.4,026.9,000.0,037.7,031.0,21.8,0000.4,0014.88,0007.22,0006.53
2023-07-17 07:06:00,SystemResetWarning,0833.6,5.02,000.00,029.3,025.5,000.0,037.6,030.8,22.1,0000.6,0015.40,0007.13,0006.45
2023-07-17 07:07:00,SystemResetWarning,0833.6,5.01,000.00,029.3,025.4,000.0,037.5,030.5,22.6,0000.4,0015.67,0007.06,0006.36
2023-07-17 07:08:00,SystemResetWarning,0833.6,5.00,000.00,029.2,025.7,000.0,037.6,030.4,23.2,0000.3,0016.25,0006.97,0006.29
2023-07-17 07:09:00,SystemResetWarning,0833.6,4.99,000.00,029.1,026.1,000.0,037.6,030.5,23.4,0000.4,0014.73,0006.87,0006.23
2023-07-17 07:10:00,SystemResetWarning,0833.6,5.00,000.00,029.1,026.5,000.0,037.6,030.6,23.2,0000.3,0014.55,0006.79,0006.17
2023-07-17 07:11:00,SystemResetWarning,0833.6,5.01,000.00,029.1,026.8,000.0,037.6,030.6,22.9,0000.0,0014.40,0006.70,0006.13
2023-07-17 07:12:00,SystemResetWarning,0833.6,5.00,000.00,029.2,027.1,000.0,037.6,030.7,22.0,-000.1,0014.18,0006.62,0006.07
2023-07-17 07:13:00,SystemResetWarning,0833.6,4.99,000.00,029.2,027.4,000.0,037.7,030.7,21.5,-000.0,0014.51,0006.54,0006.02
2023-07-17 07:14:00,SystemResetWarning,0833.6,5.00,000.00,029.2,027.6,000.0,037.7,030.8,21.2,-000.3,0014.59,0006.48,0005.98
2023-07-17 07:15:00,SystemResetWarning,0833.7,5.00,000.00,029.2,027.7,000.0,037.7,030.9,21.2,0000.0,0014.63,0006.46,0005.94
2023-07-17 07:16:00,SystemResetWarning,0833.7,5.00,000.00,029.3,027.9,000.0,037.7,030.9,20.9,-000.3,0014.49,0006.46,0005.91
2023-07-17 07:17:00,SystemResetWarning,0833.7,5.00,000.00,029.3,028.0,000.0,037.7,031.0,20.5,-000.3,0013.85,0006.43,0005.91
2023-07-17 07:18:00,SystemResetWarning,0833.7,5.00,000.00,029.3,028.1,000.0,037.7,031.0,20.1,0000.4,0013.62,0006.39,0005.90
2023-07-17 07:19:00,SystemResetWarning,0833.7,5.00,000.00,029.4,028.2,000.0,037.8,031.0,20.1,0000.6,0013.23,0006.39,0005.91
2023-07-17 07:20:00,SystemResetWarning,0833.7,5.00,000.00,029.4,028.3,000.0,037.8,031.1,19.9,0000.9,0013.68,0006.41,0005.89
2023-07-17 07:21:00,SystemResetWarning,0833.7,5.00,000.00,029.4,028.3,000.0,037.8,031.1,19.7,0000.8,0012.72,0006.41,0005.85
2023-07-17 07:22:00,SystemResetWarning,0833.7,4.98,000.00,029.5,027.0,000.0,037.7,031.0,19.6,0001.3,0012.53,0006.41,0005.80
2023-07-17 07:23:00,SystemResetWarning,0833.7,5.00,000.00,029.4,025.5,000.0,037.6,030.8,19.8,0001.5,0012.14,0006.35,0005.75
2023-07-17 07:24:00,SystemResetWarning,0833.6,5.02,000.00,029.3,025.3,000.0,037.6,030.6,19.8,0001.3,0011.96,0006.29,0005.70
2023-07-17 07:25:00,SystemResetWarning,0833.6,4.99,000.00,029.2,025.6,000.0,037.6,030.5,19.7,0001.8,0012.28,0006.21,0005.64
2023-07-17 07:26:00,SystemResetWarning,0833.6,5.00,000.00,029.2,026.0,000.0,037.6,030.5,19.8,0001.8,0012.53,0006.09,0005.57
2023-07-17 07:27:00,SystemResetWarning,0833.6,5.00,000.00,029.2,026.4,000.0,037.6,030.6,19.7,0001.9,0012.56,0005.98,0005.48
2023-07-17 07:28:00,SystemResetWarning,0833.7,5.01,000.00,029.2,026.8,000.0,037.7,030.7,19.7,0001.6,0012.47,0005.88,0005.37
2023-07-17 07:29:00,SystemResetWarning,0833.7,5.00,000.00,029.2,027.1,000.0,037.7,030.7,19.8,0001.3,0012.23,0005.77,0005.26
2023-07-17 07:30:00,SystemResetWarning,0833.7,5.00,000.00,029.2,027.3,000.0,037.7,030.8,19.8,0000.8,0012.29,0005.66,0005.14
2023-07-17 07:31:00,SystemResetWarning,0833.7,4.99,000.00,029.2,027.6,000.0,037.7,030.8,19.7,0000.1,0012.08,0005.50,0005.03
2023-07-17 07:32:00,SystemResetWarning,0833.7,5.00,000.00,029.3,027.7,000.0,037.7,030.9,19.5,0000.2,0011.89,0005.37,0004.93
2023-07-17 07:33:00,SystemResetWarning,0833.7,5.01,000.00,029.3,027.9,000.0,037.7,030.9,19.4,0000.4,0011.83,0005.25,0004.86
2023-07-17 07:34:00,SystemResetWarning,0833.7,5.00,000.00,029.3,028.0,000.0,037.7,031.0,19.3,-000.7,0011.80,0005.16,0004.77
2023-07-17 07:35:00,SystemResetWarning,0833.7,5.00,000.00,029.4,028.1,000.0,037.7,031.0,19.3,-000.6,0011.31,0005.09,0004.70
2023-07-17 07:36:00,SystemResetWarning,0833.7,5.00,000.00,029.4,028.2,000.0,037.8,031.0,19.1,-000.5,0010.75,0005.03,0004.64
2023-07-17 07:37:00,SystemResetWarning,0833.7,5.00,000.00,029.4,028.3,000.0,037.8,031.1,19.0,-000.0,0010.93,0005.00,0004.60
2023-07-17 07:38:00,SystemResetWarning,0833.7,5.00,000.00,029.5,028.4,000.0,037.8,031.1,18.9,-000.3,0010.72,0004.95,0004.57
2023-07-17 07:39:00,SystemResetWarning,0833.7,5.00,000.00,029.5,028.1,000.0,037.8,031.1,19.0,-000.4,0010.84,0004.94,0004.53
2023-07-17 07:40:00,SystemResetWarning,0833.6,4.99,000.00,029.5,026.3,000.0,037.7,031.0,19.2,-000.7,0011.39,0004.92,0004.50
2023-07-17 07:41:00,SystemResetWarning,0833.6,5.01,000.00,029.4,025.4,000.0,037.6,030.8,19.5,0000.1,0010.95,0004.87,0004.48
2023-07-17 07:42:00,SystemResetWarning,0833.6,5.01,000.00,029.3,025.5,000.0,037.6,030.6,19.4,0000.2,0010.25,0004.84,0004.45
2023-07-17 07:43:00,SystemResetWarning,0833.6,5.00,000.00,029.2,025.9,000.0,037.7,030.5,19.2,-000.2,0010.19,0004.84,0004.42
2023-07-17 07:44:00,SystemResetWarning,0833.6,5.00,000.00,029.2,026.3,000.0,037.7,030.6,19.3,-000.8,0010.16,0004.84,0004.41
2023-07-17 07:45:00,SystemResetWarning,0833.6,5.00,000.00,029.2,026.6,000.0,037.7,030.7,19.3,-000.2,0010.52,0004.84,0004.41
2023-07-17 07:46:00,SystemResetWarning,0833.6,5.00,000.00,029.2,027.0,000.0,037.7,030.7,19.3,0000.3,0010.70,0004.86,0004.41
2023-07-17 07:47:00,SystemResetWarning,0833.6,5.00,000.00,029.2,027.2,000.0,037.7,030.8,19.4,-000.2,0010.40,0004.89,0004.42
2023-07-17 07:48:00,SystemResetWarning,0833.6,5.01,000.00,029.3,027.5,000.0,037.7,030.8,19.4,-000.8,0010.09,0004.90,0004.42
2023-07-17 07:49:00,SystemResetWarning,0833.6,4.98,000.00,029.3,027.7,000.0,037.8,030.9,19.3,0000.1,0010.37,0004.89,0004.42
2023-07-17 07:50:00,SystemResetWarning,0833.6,4.99,000.00,029.3,027.8,000.0,037.8,030.9,19.2,0000.8,0010.70,0004.87,0004.42
2023-07-17 07:51:00,SystemResetWarning,0833.6,5.01,000.00,029.3,028.0,000.0,037.8,031.0,19.2,0000.9,0010.26,0004.87,0004.43
2023-07-17 07:52:00,SystemResetWarning,0833.6,5.00,000.00,029.4,028.1,000.0,037.8,031.0,19.2,0000.6,0010.17,0004.88,0004.43
2023-07-17 07:53:00,SystemResetWarning,0833.6,5.01,000.00,029.4,028.2,000.0,037.8,031.1,19.1,0001.4,0010.20,0004.87,0004.43
2023-07-17 07:54:00,SystemResetWarning,0833.6,5.01,000.00,029.5,028.3,000.0,037.8,031.1,19.1,0002.2,0010.21,0004.87,0004.45
2023-07-17 07:55:00,SystemResetWarning,0833.6,5.01,000.00,029.5,028.4,000.0,037.9,031.2,19.1,0002.6,0010.08,0004.86,0004.46
2023-07-17 07:56:00,SystemResetWarning,0833.6,4.98,000.00,029.5,027.4,000.0,037.8,031.1,19.0,0002.8,0009.65,0004.86,0004.48
2023-07-17 07:57:00,SystemResetWarning,0833.6,5.00,000.00,029.4,025.7,000.0,037.7,030.8,19.0,0002.5,0009.59,0004.88,0004.51
2023-07-17 07:58:00,SystemResetWarning,0833.5,5.01,000.00,029.4,025.4,000.0,037.6,030.6,18.9,0002.4,0009.54,0004.89,0004.51
2023-07-17 07:59:00,SystemResetWarning,0833.5,4.99,000.00,029.3,025.7,000.0,037.7,030.5,19.0,0002.2,0009.18,0004.89,0004.51
